Regional Weather Roundup
Issued by NWS

Home | Current Version | Previous Version | Text Only | Print | Product List | Glossary On
Versions: 1 2 3 4 5 6 7 8 9 10 11 12 13 14 15 16 17 18 19 20 21 22 23 24 25 26 27
000
ASUS45 KBOU 310410
RWRCO

WEATHER ROUNDUP FOR COLORADO
NATIONAL WEATHER SERVICE DENVER/BOULDER CO
1000 PM MDT FRI JUL 30 2021

NOTE: "FAIR" INDICATES FEW OR NO CLOUDS BELOW 12000 FEET WITH NO
SIGNIFICANT WEATHER AND/OR OBSTRUCTIONS TO VISIBILITY.

COZ001>005-013-030-031-310500-
...NORTHWEST COLORADO...

CITY           SKY/WX    TMP DP  RH WIND       PRES   REMARKS
CRAIG          MOCLDY    67  56  67 E7        30.34R
HAYDEN         FAIR      64  55  72 E14       30.39R
MEEKER         MOCLDY    69  51  52 E12       30.36R
RANGELY        FAIR      78  57  48 E6        30.22R
RABBIT EARS PA CLOUDY    52  46  82 CALM      30.70S THUNDER
STEAMBOAT SPGS MOCLDY    60  57  88 SE7       30.39F
WALDEN         MOCLDY    57  51  79 E8        30.54R
$$

COZ006>008-011-310500-
...WEST CENTRAL VALLEYS...

CITY           SKY/WX    TMP DP  RH WIND       PRES   REMARKS
GRAND JUNCTION FAIR      80  54  40 SW6       30.20R
MONTROSE       CLOUDY    69  55  60 SE13      30.34R
EAGLE          LGT RAIN  65  57  75 NW6       30.46R
RIFLE          LGT RAIN  65  60  84 CALM      30.35R
DELTA          TSTM      75  57  52 MISG      30.29R
NUCLA          NOT AVBL
$$

COZ017>023-064>068-310500-
...SOUTHWEST COLORADO...

CITY           SKY/WX    TMP DP  RH WIND       PRES   REMARKS
DURANGO        FAIR      63  53  70 VRB5      30.36R
CORTEZ         TSTM      63  61  93 NE13G21   30.34R
PAGOSA SPRINGS FAIR      63  51  64 CALM      30.44R
TELLURIDE      CLOUDY    55  50  82 E6        30.60R THUNDER
WOLF CREEK PAS FAIR      46  41  81 W12       30.79R THUNDER
$$

COZ009-010-012-014-032>034-037-058>063-310500-
...CENTRAL COLORADO...

CITY           SKY/WX    TMP DP  RH WIND       PRES   REMARKS
ASPEN          MOCLDY    59  55  87 CALM      30.51R
BUENA VISTA    CLOUDY    60  51  71 NW10      30.51R
COPPER MTN     CLOUDY    50  43  76 NE3       30.81S
BERTHOUD PASS  CLOUDY    41  28  60 W22G29    30.83R HAZE
DAKOTA HILL    CLOUDY    46  43  87 S8G16     30.72R THUNDER
COTTONWOOD PAS MOCLDY    59  45  58 SE12      30.63R THUNDER
GUNNISON       FAIR      61  55  81 NW5       30.48R
GRANBY         CLOUDY    61  51  71 E3        30.54R
KREMMLING      CLOUDY    61  52  72 S10       30.50R
LEADVILLE      CLOUDY    50  48  93 VRB3      30.64R
SALIDA         CLOUDY    62  57  81 E3        30.56R
SUNLIGHT       TSTM      45  43  93 NE3       30.75R
WILKERSON PASS NOT AVBL
$$

COZ069>075-310500-
...SAN LUIS VALLEY/SANGRE DE CRISTO MOUNTAINS...

CITY           SKY/WX    TMP DP  RH WIND       PRES   REMARKS
ALAMOSA        MOCLDY    63  51  65 CALM      30.39R
DEL NORTE      MOCLDY    68  45  43 CALM      30.44R THUNDER
LA VETA PASS   MOCLDY    57  41  54 W8        30.60R
SAGUACHE       CLOUDY    68  46  45 NW9G20    30.46R THUNDER
$$

COZ035-036-038>040-310500-
...NORTHERN COLORADO FRONT RANGE...

CITY           SKY/WX    TMP DP  RH WIND       PRES   REMARKS
DENVER INTL AP TSTM      68  60  75 NW18      30.29F
AURORA         MOCLDY    64  61  90 NW14      30.31F
WATKINS        NOT AVBL
ERIE           CLOUDY    65  61  86 SE21G28   30.36R THUNDER
BOULDER        LGT RAIN  72  55  56 SE16G24   30.31R
CENTENNIAL     CLOUDY    67  60  78 W10       30.33R
BROOMFIELD     TSTM      64  59  82 E6G13     30.37R
FORT COLLINS   FAIR      68  61  78 W10       30.25R
LONGMONT       MOCLDY    73  56  56 S12G22    30.31R
$$

COZ041-046-047-076>085-087-088-310500-
...PIKES PEAK/PALMER DIVIDE AND SOUTHERN FOOTHILLS...

CITY           SKY/WX    TMP DP  RH WIND       PRES   REMARKS
COLO. SPRINGS  MOCLDY    72  53  51 NW22G31   30.31R
A. F. ACADEMY  MOCLDY    67  53  61 N12       30.34R
SCHRIEVER AFB  NOT AVBL
CHEYENNE MTN   NOT AVBL
ELLICOTT       FAIR      72  55  54 N16       30.29R
FALCON         FAIR      67  53  59 N22G33    30.36R
FORT CARSON    FAIR      76  51  41 N20G33    30.24R
LIMON          MOCLDY    74  55  51 NW14G23   30.24R
MONUMENT HILL  MOCLDY    61  54  77 NW10      30.43R
CANON CITY     FAIR      77  52  41 SW16      30.19R
WALSENBURG     NOT AVBL
TRINIDAD       FAIR      76  49  38 NW9       30.22R
$$

COZ042>045-048>051-090-091-310500-
...NORTHEAST COLORADO...

CITY           SKY/WX    TMP DP  RH WIND       PRES   REMARKS
GREELEY        RAIN      71  61  70 N24       30.22R
AKRON          FAIR      78  53  41 E8        30.17R
BURLINGTON     FAIR      75  54  47 S10       30.14R
WRAY           FAIR      81  46  30 CALM      30.09R
YUMA           FAIR      73  39  29 CALM      30.12R
STERLING       MOCLDY    77  61  57 MISG      30.14R
HOLYOKE        FAIR      79  61  53 N8        30.11R
FORT MORGAN    RAIN      77  60  55 NW20      30.21R
$$

COZ086-089-092>099-310500-
...SOUTHEAST COLORADO...

CITY           SKY/WX    TMP DP  RH WIND       PRES   REMARKS
PUEBLO         FAIR      81  56  42 N24G39    30.11R
LA JUNTA       FAIR      89  48  24 S20       30.06R
LAMAR          FAIR      83  55  38 SE12      30.06R
SPRINGFIELD      N/A     77  54  44 S10       30.14R
$$



USA.gov is the U.S. government's official web portal to all federal, state and local government web resources and services.